FWV9AL LEMD-LESO

Flight info

Callsign FWV9AL
Flight time 0h 38m
Altitude 26000
Route RBO N867 GASMO T430 LPA/N0351F140 T430 DITOP N10 SSN
Aircraft A320/M-SDE3FGHIRWY/LB1

Departure

Time 2026-05-08 19:01
Airport Adolfo Suárez Madrid–Barajas Airport (LEMD)

Arrival

Time 2026-05-08 19:40
Airport San Sebastián Airport (LESO)
Time Latitude Longitude Altitude Speed Heading
2026-05-08 18:38 40.49835 -3.56650 1982 ft 0 kts 270°
2026-05-08 18:53 40.49836 -3.56624 1981 ft 4 kts 263°
2026-05-08 18:53 40.49840 -3.56588 1980 ft 4 kts 264°
2026-05-08 18:53 40.49839 -3.56559 1980 ft 4 kts 317°
2026-05-08 18:54 40.49842 -3.56554 1980 ft 4 kts
2026-05-08 18:54 40.49869 -3.56554 1980 ft 4 kts 360°
2026-05-08 18:54 40.49884 -3.56554 1980 ft 0 kts 360°
2026-05-08 18:57 40.49890 -3.56554 1982 ft 4 kts 360°
2026-05-08 18:58 40.49929 -3.56538 1981 ft 6 kts 46°
2026-05-08 18:58 40.49940 -3.56474 1980 ft 11 kts 89°
2026-05-08 18:58 40.49940 -3.56381 1980 ft 10 kts 89°
2026-05-08 18:58 40.49940 -3.56295 1980 ft 10 kts 91°
2026-05-08 18:59 40.49941 -3.56171 1980 ft 15 kts 90°
2026-05-08 18:59 40.49949 -3.56044 1984 ft 7 kts 74°
2026-05-08 18:59 40.49951 -3.56036 1982 ft 0 kts 71°
2026-05-08 19:00 40.49962 -3.56004 1983 ft 12 kts 60°
2026-05-08 19:00 40.50052 -3.55930 1982 ft 20 kts
2026-05-08 19:00 40.50390 -3.55923 1980 ft 84 kts 360°
2026-05-08 19:01 40.51185 -3.55928 1981 ft 141 kts 359°
2026-05-08 19:01 40.52298 -3.55929 2222 ft 165 kts 359°
2026-05-08 19:01 40.53425 -3.55933 2989 ft 160 kts 359°
2026-05-08 19:01 40.54532 -3.55937 3718 ft 158 kts 359°
2026-05-08 19:02 40.55673 -3.55951 4071 ft 176 kts 359°
2026-05-08 19:02 40.56967 -3.55971 4336 ft 196 kts 359°
2026-05-08 19:02 40.58401 -3.55970 4614 ft 216 kts 360°
2026-05-08 19:02 40.59936 -3.55615 4865 ft 235 kts 20°
2026-05-08 19:03 40.61518 -3.54841 5380 ft 246 kts 17°
2026-05-08 19:03 40.63178 -3.54217 6093 ft 251 kts 14°
2026-05-08 19:03 40.64815 -3.53307 6588 ft 267 kts 40°
2026-05-08 19:03 40.66136 -3.51466 6959 ft 287 kts 49°
2026-05-08 19:04 40.67491 -3.49513 7638 ft 295 kts 50°
2026-05-08 19:04 40.68867 -3.47476 8436 ft 300 kts 50°
2026-05-08 19:04 40.70276 -3.45412 9250 ft 305 kts 50°
2026-05-08 19:04 40.71723 -3.43346 10029 ft 309 kts 49°
2026-05-08 19:05 40.73241 -3.41219 10397 ft 330 kts 49°
2026-05-08 19:05 40.74879 -3.38955 10620 ft 354 kts 48°
2026-05-08 19:05 40.76634 -3.36555 10964 ft 370 kts 47°
2026-05-08 19:05 40.78444 -3.34100 11594 ft 377 kts 47°
2026-05-08 19:06 40.80290 -3.31599 12274 ft 382 kts 46°
2026-05-08 19:06 40.82152 -3.29069 12961 ft 386 kts 46°
2026-05-08 19:06 40.84201 -3.26740 13624 ft 391 kts 34°
2026-05-08 19:06 40.86570 -3.24963 14234 ft 393 kts 21°
2026-05-08 19:07 40.89169 -3.23831 14813 ft 395 kts
2026-05-08 19:07 40.91889 -3.23201 15386 ft 398 kts
2026-05-08 19:07 40.94634 -3.22596 15973 ft 402 kts
2026-05-08 19:07 40.97411 -3.21977 16552 ft 407 kts
2026-05-08 19:08 41.00213 -3.21344 17119 ft 411 kts
2026-05-08 19:08 41.03045 -3.20702 17667 ft 415 kts
2026-05-08 19:08 41.05910 -3.20053 18230 ft 419 kts
2026-05-08 19:08 41.08795 -3.19402 18738 ft 423 kts
2026-05-08 19:09 41.11669 -3.18756 19195 ft 427 kts
2026-05-08 19:09 41.14651 -3.18088 19697 ft 430 kts
2026-05-08 19:09 41.17615 -3.17425 20192 ft 433 kts
2026-05-08 19:09 41.20597 -3.16755 20688 ft 436 kts
2026-05-08 19:10 41.23562 -3.16086 21140 ft 440 kts
2026-05-08 19:10 41.26630 -3.15390 21595 ft 443 kts
2026-05-08 19:10 41.29610 -3.14714 22036 ft 446 kts
2026-05-08 19:10 41.32680 -3.14018 22490 ft 449 kts
2026-05-08 19:11 41.35776 -3.13316 22958 ft 452 kts
2026-05-08 19:11 41.38885 -3.12610 23405 ft 455 kts
2026-05-08 19:11 41.42029 -3.11896 23769 ft 458 kts
2026-05-08 19:11 41.45153 -3.11187 24133 ft 461 kts
2026-05-08 19:12 41.48332 -3.10468 24498 ft 464 kts
2026-05-08 19:12 41.51523 -3.09746 24852 ft 466 kts
2026-05-08 19:12 41.54736 -3.09017 25222 ft 469 kts
2026-05-08 19:12 41.57960 -3.08287 25566 ft 471 kts
2026-05-08 19:13 41.61206 -3.07553 25848 ft 474 kts
2026-05-08 19:13 41.64455 -3.06815 25919 ft 472 kts
2026-05-08 19:13 41.67686 -3.06076 25933 ft 471 kts
2026-05-08 19:13 41.70885 -3.05052 25909 ft 475 kts 14°
2026-05-08 19:14 41.73957 -3.03378 25944 ft 478 kts 24°
2026-05-08 19:14 41.76788 -3.01129 25941 ft 480 kts 33°
2026-05-08 19:14 41.79496 -2.98494 25934 ft 481 kts 34°
2026-05-08 19:14 41.82201 -2.95854 25934 ft 480 kts 34°
2026-05-08 19:15 41.84906 -2.93214 25943 ft 480 kts 34°
2026-05-08 19:15 41.87604 -2.90576 25937 ft 480 kts 34°
2026-05-08 19:15 41.90304 -2.87932 25946 ft 481 kts 34°
2026-05-08 19:15 41.93003 -2.85284 25949 ft 480 kts 34°
2026-05-08 19:16 41.95701 -2.82629 25959 ft 480 kts 34°
2026-05-08 19:16 41.98394 -2.79977 25961 ft 480 kts 34°
2026-05-08 19:16 42.01086 -2.77329 25970 ft 479 kts 34°
2026-05-08 19:16 42.03780 -2.74678 25964 ft 479 kts 34°
2026-05-08 19:17 42.06468 -2.72032 25959 ft 479 kts 34°
2026-05-08 19:17 42.09152 -2.69384 25958 ft 478 kts 34°
2026-05-08 19:17 42.11832 -2.66737 25942 ft 478 kts 34°
2026-05-08 19:17 42.14512 -2.64085 25937 ft 478 kts 34°
2026-05-08 19:18 42.17191 -2.61431 25946 ft 478 kts 34°
2026-05-08 19:18 42.19840 -2.58806 25954 ft 477 kts 34°
2026-05-08 19:18 42.22544 -2.56125 25958 ft 477 kts 34°
2026-05-08 19:18 42.25181 -2.53509 25946 ft 477 kts 34°
2026-05-08 19:19 42.27854 -2.50854 25951 ft 477 kts 34°
2026-05-08 19:19 42.30531 -2.48193 25950 ft 476 kts 34°
2026-05-08 19:19 42.33199 -2.45538 25957 ft 477 kts 34°
2026-05-08 19:19 42.35869 -2.42877 25949 ft 477 kts 34°
2026-05-08 19:20 42.38536 -2.40216 25958 ft 476 kts 34°
2026-05-08 19:20 42.39434 -2.39317 25965 ft 476 kts 35°
2026-05-08 19:20 42.43858 -2.34885 25964 ft 475 kts 35°
2026-05-08 19:20 42.46521 -2.32214 25961 ft 475 kts 35°
2026-05-08 19:21 42.49176 -2.29552 25972 ft 474 kts 35°
2026-05-08 19:21 42.51827 -2.26893 25948 ft 474 kts 34°
2026-05-08 19:21 42.54482 -2.24228 25948 ft 474 kts 34°
2026-05-08 19:21 42.57136 -2.21562 25807 ft 473 kts 34°
2026-05-08 19:22 42.59730 -2.18947 25580 ft 470 kts 34°
2026-05-08 19:22 42.62344 -2.16308 25145 ft 465 kts 35°
2026-05-08 19:22 42.64931 -2.13693 24554 ft 462 kts 35°
2026-05-08 19:22 42.67496 -2.11100 23987 ft 459 kts 35°
2026-05-08 19:23 42.70050 -2.08520 23404 ft 455 kts 35°
2026-05-08 19:23 42.72585 -2.05954 22834 ft 451 kts 35°
2026-05-08 19:23 42.75081 -2.03423 22320 ft 445 kts 35°
2026-05-08 19:23 42.77549 -2.00916 21823 ft 440 kts 36°
2026-05-08 19:24 42.79991 -1.98435 21351 ft 435 kts 36°
2026-05-08 19:24 42.82404 -1.95978 20875 ft 430 kts 36°
2026-05-08 19:24 42.84786 -1.93554 20397 ft 426 kts 36°
2026-05-08 19:24 42.87153 -1.91143 19908 ft 422 kts 36°
2026-05-08 19:25 42.89494 -1.88756 19424 ft 418 kts 36°
2026-05-08 19:25 42.91815 -1.86386 18926 ft 416 kts 36°
2026-05-08 19:25 42.94131 -1.84020 18412 ft 415 kts 36°
2026-05-08 19:25 42.96440 -1.81659 17834 ft 414 kts 36°
2026-05-08 19:26 42.98835 -1.79526 17305 ft 409 kts 26°
2026-05-08 19:26 43.01465 -1.78113 16768 ft 404 kts 13°
2026-05-08 19:26 43.04220 -1.77472 16226 ft 400 kts
2026-05-08 19:26 43.06980 -1.77613 15692 ft 394 kts 349°
2026-05-08 19:27 43.09671 -1.78215 15164 ft 392 kts 347°
2026-05-08 19:27 43.12322 -1.78813 14642 ft 391 kts 347°
2026-05-08 19:27 43.15035 -1.79422 14096 ft 390 kts 348°
2026-05-08 19:27 43.17710 -1.80020 13519 ft 388 kts 348°
2026-05-08 19:28 43.20361 -1.80611 12963 ft 384 kts 348°
2026-05-08 19:28 43.22945 -1.81189 12426 ft 382 kts 349°
2026-05-08 19:28 43.25573 -1.81776 11856 ft 380 kts 349°
2026-05-08 19:28 43.28180 -1.82368 11284 ft 377 kts 347°
2026-05-08 19:29 43.30673 -1.83406 10675 ft 372 kts 334°
2026-05-08 19:29 43.32892 -1.85130 10353 ft 356 kts 321°
2026-05-08 19:29 43.34731 -1.87190 10226 ft 327 kts 317°
2026-05-08 19:29 43.36414 -1.89126 10066 ft 306 kts 317°
2026-05-08 19:30 43.38028 -1.90975 9684 ft 299 kts 317°
2026-05-08 19:30 43.39622 -1.92806 9559 ft 300 kts 317°
2026-05-08 19:30 43.41306 -1.94560 9022 ft 309 kts 330°
2026-05-08 19:30 43.43361 -1.95401 8491 ft 314 kts 357°
2026-05-08 19:31 43.45491 -1.94935 8152 ft 306 kts 24°
2026-05-08 19:31 43.47253 -1.93422 7547 ft 295 kts 49°
2026-05-08 19:31 43.48412 -1.91174 6897 ft 286 kts 66°
2026-05-08 19:31 43.49367 -1.88782 6232 ft 283 kts 65°
2026-05-08 19:32 43.50292 -1.86448 5645 ft 277 kts 65°
2026-05-08 19:32 43.51195 -1.84181 5503 ft 255 kts 66°
2026-05-08 19:32 43.52012 -1.82139 5385 ft 241 kts 66°
2026-05-08 19:32 43.52819 -1.80121 5278 ft 232 kts 66°
2026-05-08 19:33 43.53564 -1.78262 5172 ft 217 kts 66°
2026-05-08 19:33 43.54268 -1.76489 5110 ft 203 kts 69°
2026-05-08 19:33 43.54580 -1.74719 4995 ft 181 kts 97°
2026-05-08 19:33 43.54316 -1.73112 4814 ft 168 kts 121°
2026-05-08 19:34 43.53652 -1.71827 4582 ft 163 kts 133°
2026-05-08 19:34 43.52946 -1.70643 4352 ft 158 kts 133°
2026-05-08 19:34 43.52260 -1.69481 4138 ft 154 kts 133°
2026-05-08 19:34 43.51591 -1.68344 3928 ft 151 kts 133°
2026-05-08 19:35 43.50947 -1.67250 3733 ft 144 kts 133°
2026-05-08 19:35 43.50320 -1.66186 3541 ft 142 kts 133°
2026-05-08 19:35 43.49566 -1.65362 3362 ft 138 kts 159°
2026-05-08 19:35 43.48620 -1.65197 3168 ft 140 kts 187°
2026-05-08 19:36 43.47724 -1.65739 2964 ft 145 kts 214°
2026-05-08 19:36 43.46943 -1.66614 2799 ft 142 kts 214°
2026-05-08 19:36 43.46178 -1.67461 2596 ft 140 kts 214°
2026-05-08 19:36 43.45431 -1.68287 2412 ft 139 kts 214°
2026-05-08 19:37 43.44673 -1.69124 2193 ft 140 kts 214°
2026-05-08 19:37 43.43912 -1.69962 2001 ft 140 kts 215°
2026-05-08 19:37 43.43149 -1.70803 1816 ft 140 kts 215°
2026-05-08 19:37 43.42386 -1.71643 1625 ft 140 kts 215°
2026-05-08 19:38 43.41621 -1.72484 1416 ft 141 kts 218°
2026-05-08 19:38 43.40838 -1.73348 1231 ft 147 kts 221°
2026-05-08 19:38 43.40037 -1.74231 1032 ft 148 kts 221°
2026-05-08 19:38 43.39234 -1.75119 849 ft 148 kts 220°
2026-05-08 19:39 43.38449 -1.76007 617 ft 145 kts 219°
2026-05-08 19:39 43.37667 -1.76878 422 ft 145 kts 219°
2026-05-08 19:39 43.36870 -1.77736 242 ft 146 kts 218°
2026-05-08 19:39 43.36066 -1.78601 31 ft 146 kts 220°
2026-05-08 19:40 43.35435 -1.79304 20 ft 69 kts 218°
2026-05-08 19:40 43.35188 -1.79570 20 ft 41 kts 218°
2026-05-08 19:40 43.35074 -1.79730 20 ft 13 kts 199°
2026-05-08 19:40 43.35059 -1.79702 20 ft 5 kts 41°
2026-05-08 19:41 43.35139 -1.79621 20 ft 22 kts 37°
2026-05-08 19:41 43.35290 -1.79455 20 ft 30 kts 39°
2026-05-08 19:41 43.35453 -1.79277 19 ft 26 kts 39°
2026-05-08 19:41 43.35531 -1.79265 18 ft 4 kts 310°
2026-05-08 19:42 43.35534 -1.79271 18 ft 0 kts 310°
2026-05-08 19:42 43.35535 -1.79271 18 ft 0 kts 310°
2026-05-08 19:42 43.35542 -1.79284 18 ft 6 kts 310°
2026-05-08 19:43 43.35567 -1.79298 17 ft 6 kts
2026-05-08 19:43 43.35596 -1.79275 19 ft 2 kts 36°
2026-05-08 19:43 43.35599 -1.79272 18 ft 0 kts 37°